Location: Unspecified
(43.4680°N, 87.1740°E)
Time: 11:52:37
(UTC+00:00)

Daily predictions for brighter satellites

Satellite Brightness Start Highest point End
(mag) Time Altitude Azimuth Time Altitude Azimuth Time Altitude Azimuth
Cosmos 2366 rocket 4.4 13:21:38 10° N 13:28:01 75° W 13:34:19 10° S
CZ-4B R/B 3.4 13:24:29 10° SSE 13:29:58 57° ENE 13:35:24 10° N
Meteor 1-11 4.3 13:24:19 10° N 13:30:02 72° ENE 13:35:45 10° SSE
YAOGAN 1 4.1 13:26:43 10° SSW 13:30:44 39° W 13:34:46 10° NNW
Cosmos 1975 Rocket 3.3 13:32:44 10° NNW 13:37:03 72° W 13:41:19 10° S
Resurs 1-3 3.7 13:33:16 10° S 13:37:37 81° W 13:41:59 10° NNW
Nadezhda 3 Rocket 4.1 13:33:22 10° SSE 13:39:19 55° E 13:45:21 10° NNE
USA 267 3.3 13:34:01 10° NE 13:40:37 89° SE 13:47:10 10° SW
Cosmos 1821 Rocket 3.9 13:34:28 10° N 13:40:38 79° E 13:46:43 10° SSE
COSMOS 2455 4.0 13:37:06 10° NNW 13:42:20 30° NE 13:47:33 10° ESE
Sich 1 Rocket 4.1 13:38:49 10° SSE 13:42:52 37° E 13:47:00 10° NNE
Okean-O 3.7 13:47:11 10° SE 13:50:50 28° ENE 13:54:36 10° N
Cosmos 1503 Rocket 4.1 13:45:32 10° NNW 13:50:53 63° ENE 13:56:10 10° SSE
SJ 16-02 4.1 13:48:12 10° NW 13:51:11 19° W 13:54:11 10° SW
BREEZE-M R/B 3.3 13:48:49 10° NW 13:51:12 28° NNE 13:53:24 10° ENE
Tiangong -1.9 13:49:06 10° WSW 13:52:07 50° S 13:54:38 13° E
MOS 1-B 4.4 13:47:25 10° SSE 13:53:12 75° ENE 13:59:00 10° NNW
CENTAUR R/B 4.5 13:47:02 10° NNW 13:53:34 27° NNE 14:00:51 10° E
CZ-4C R/B 4.2 13:51:38 10° NE 13:54:18 21° E 13:56:33 12° SE
Cosmos 1354 Rocket 4.3 13:50:24 10° NNW 13:55:37 52° ENE 14:00:31 11° SE
Cosmos 1763 Rocket 4.5 13:52:17 10° SSE 13:56:17 24° E 14:00:21 10° NE
DELTA 2 DEB (DPAF) 3.9 13:52:30 10° NNE 13:56:45 72° ESE 14:00:57 10° S
Cosmos 304 Rocket 4.0 13:52:15 10° NNW 13:56:56 53° ENE 14:01:13 12° SE
USA 186 1.7 13:55:24 10° S 13:58:25 78° W 14:01:24 10° NNW
USA 281 3.7 13:53:03 11° SE 13:58:59 45° ENE 14:05:10 10° NNW
Cosmos 371 Rocket 3.3 13:55:39 10° NNW 14:00:27 71° ENE 14:05:10 10° SSE
Okean O Rocket 1.6 13:56:42 10° SSE 14:01:02 69° ENE 14:05:23 10° N
Cosmos 1536 Rocket 3.7 13:58:57 10° N 14:03:19 56° E 14:07:41 10° SSE
Atlas Centaur 2 3.6 13:59:12 10° SW 14:03:23 20° S 14:06:12 13° SE
NOSS 3-1 (A) 3.8 13:59:03 10° SW 14:03:53 57° NW 14:09:42 10° NNE
Iridium 2 3.8 14:04:03 10° NNE 14:06:43 31° E 14:08:00 21° SE
USA 229 DEB 3.4 14:07:07 10° SSW 14:13:03 64° ESE 14:19:36 10° NE
Cosmos 1934 Rocket 4.1 14:06:59 10° N 14:13:06 61° E 14:19:14 10° SSE
USA 229 3.5 14:07:12 10° SSW 14:13:09 63° ESE 14:19:41 10° NE
Feng Yun 1-1 Rocket 4.5 14:07:40 10° S 14:13:12 75° WSW 14:18:57 10° NNW
CSL-04 Debris 4.3 14:09:43 10° S 14:15:09 78° WSW 14:20:39 10° NNW
USA 234 3.4 14:10:13 16° ESE 14:15:39 72° NE 14:22:11 10° NW
Cosmos 1339 Rocket 4.4 14:10:23 10° S 14:16:26 66° E 14:22:27 10° NNE
Cosmos 1980 Rocket 3.8 14:18:40 15° E 14:18:40 15° E 14:21:11 10° ENE
Cosmos 2227 Rocket 3.2 14:14:56 10° N 14:20:01 33° NE 14:23:13 19° ESE
Resurs 01 Rocket 1.9 14:16:42 10° S 14:21:06 70° W 14:25:32 10° NNW
ATLAS 5 CENTAUR R/B 4.3 14:19:09 10° WNW 14:21:07 14° NNW 14:23:14 10° N
CSL-04 Rocket 3.9 14:16:58 10° S 14:22:27 73° WSW 14:27:55 10° NNW
Cosmos 1697 Rocket 3.2 14:20:07 10° S 14:25:15 37° ESE 14:30:25 10° NE
Terra 3.1 14:28:20 20° E 14:29:56 24° ENE 14:33:41 10° NNE
CZ-4 R/B 3.7 14:27:20 10° SW 14:30:20 21° W 14:33:20 10° NW
ERS-1 Rocket 4.0 14:28:35 22° ESE 14:30:40 30° ENE 14:35:00 10° N
Cosmos 2151 Rocket 4.1 14:26:43 10° SSW 14:31:04 61° W 14:35:28 10° N
ATLAS 3B R/B 4.0 14:24:33 10° WSW 14:31:21 46° NW 14:38:40 10° NNE
MOS 1 4.3 14:28:50 19° SSE 14:33:01 66° ENE 14:38:41 10° N
Cosmos 332 Rocket 4.0 14:29:11 10° NNW 14:33:58 55° ENE 14:36:23 28° SE
SPOT 5 3.3 14:32:01 23° SE 14:35:04 51° ENE 14:40:05 10° N
Cosmos 405 Rocket 3.2 14:34:56 33° ESE 14:35:30 35° E 14:38:55 10° NNE
Cosmos 1656 3.9 14:30:42 10° SSW 14:36:15 74° WNW 14:41:46 10° NNE
Cosmos 44 3.7 14:31:17 10° SW 14:36:42 78° NW 14:42:03 10° NNE
Cosmos 2360 4.1 14:32:08 10° S 14:37:44 65° ESE 14:43:23 10° NNE
Genesis I 3.9 14:35:12 10° NW 14:38:40 42° WSW 14:40:31 23° S
Cosmos 1892 Rocket 4.2 14:34:54 10° N 14:38:57 37° ENE 14:40:03 31° ESE
SL-4 R/B 2.3 14:36:18 10° NW 14:39:46 44° NNE 14:40:58 31° ENE
BlueWalker 3 3.8 14:38:58 10° W 14:42:24 31° NNW 14:45:50 10° NE
ATLAS CENTAUR R/B 2.5 14:39:43 10° NNW 14:43:01 27° NE 14:44:00 24° ENE
Cosmos 2297 Rocket 2.2 14:42:32 10° NNW 14:48:13 87° WSW 14:51:25 27° SSE
Cosmos 2058 3.9 14:54:37 10° NNE 14:58:00 30° ENE 14:58:00 30° ENE
SPOT 3 Rocket 4.2 14:59:25 34° ESE 15:00:43 40° ENE 15:05:32 10° N
IRS-1C Rocket 4.0 15:01:55 32° SSE 15:04:27 89° WSW 15:09:46 10° NNW
Cosmos 1455 Rocket 2.9 15:03:39 45° SSE 15:04:55 72° E 15:09:17 10° NNE
Cosmos 2219 3.8 15:02:09 10° NNW 15:07:32 42° ENE 15:09:04 35° E
Cosmos 1937 Rocket 4.4 15:02:54 10° N 15:07:42 33° ENE 15:08:43 30° E
Okean 1 Rocket 4.2 15:03:56 10° SSW 15:08:10 43° WNW 15:12:27 10° N
Cosmos 2263 Rocket 3.2 15:05:15 10° N 15:10:12 31° NE 15:11:36 27° E
CZ-4C R/B 3.0 15:05:22 10° NW 15:12:40 77° NE 15:16:42 35° SE
Aureole 1 Rocket 2.9 15:09:56 10° NNW 15:12:18 48° NNE 15:12:18 48° NNE
Iridium 4 Rocket 4.3 15:08:34 10° SSW 15:13:57 58° W 15:19:45 10° N
Meteor 2-1 Rocket 4.4 15:16:38 44° ESE 15:17:05 45° E 15:22:18 10° NNE
Helios 1B 4.4 15:15:53 10° NNE 15:20:11 68° ESE 15:20:13 68° ESE
Celestis-02/Orion 38 4.4 15:20:59 52° SSE 15:22:17 86° WSW 15:27:24 10° NNW
Spot 2 Rocket 3.4 15:21:38 56° SE 15:22:33 69° ENE 15:27:34 10° N
IRS-1A Rocket 4.5 15:19:52 33° S 15:22:36 73° WSW 15:28:28 10° NNW
Cosmos 2082 4.4 15:18:33 10° NNW 15:23:49 38° ENE 15:24:50 35° E
Cosmos 1898 Rocket 3.5 15:19:45 10° NNW 15:24:57 61° ENE 15:25:39 55° ESE
Cosmos 1437 Rocket 2.8 15:21:13 10° NNW 15:25:09 71° W 15:25:19 69° WSW
Okean-O 4.3 15:24:38 17° SW 15:27:09 29° W 15:31:00 10° NW
Tiangong 0.1 15:25:33 10° W 15:26:39 20° W 15:26:39 20° W
COSMOS 2455 3.2 15:22:42 10° NW 15:28:36 56° WSW 15:30:44 37° S
ARGOS Delta rocket 4.2 15:29:06 54° ESE 15:29:53 61° ENE 15:35:16 10° N
Cosmos 2173 Rocket 4.2 15:24:39 10° N 15:30:53 53° ENE 15:32:01 47° ESE
MOS 1 Rocket 3.7 15:32:25 44° NE 15:32:25 44° NE 15:36:12 10° N
Cosmos 292 Rocket 3.8 15:27:58 10° NNW 15:32:42 63° ENE 15:32:48 63° ENE
Okean O Rocket 4.4 15:36:17 10° WSW 15:37:46 12° W 15:39:16 10° WNW
Ariane Rocket 2.9 15:41:58 66° SSW 15:42:37 79° WSW 15:47:40 10° NNW
USA 281 4.2 15:39:55 22° SSW 15:43:31 38° WSW 15:49:35 10° NW
USA 81 4.0 15:42:50 62° SSW 15:43:45 84° W 15:49:03 10° N
USA 245 4.4 15:43:58 46° SW 15:44:58 53° WSW 15:49:16 10° NNW
CENTAUR R/B 3.3 15:37:24 10° NW 15:45:44 72° NE 15:49:05 43° ESE
SL-16 R/B 4.3 15:51:49 13° ENE 15:51:49 13° ENE 15:52:36 10° NE
Meteor 2-3 Rocket 3.9 15:43:05 10° N 15:48:41 55° ENE 15:48:51 55° E
Cosmos 540 Rocket 4.4 15:44:21 10° SW 15:49:08 46° WNW 15:54:03 10° N
Cosmos 1626 Rocket 3.9 15:44:49 10° N 15:48:30 57° NNE 15:48:30 57° NNE
Spot 1 4.3 15:51:11 10° N 15:55:16 68° NNW 15:55:16 68° NNW
USA 234 4.1 15:57:33 32° SSW 15:58:58 35° SW 16:04:52 10° WNW
Cosmos 1980 Rocket 2.2 16:00:18 59° SW 16:01:24 79° WNW 16:07:05 10° NNE
Cosmos 2016 Rocket 4.1 15:55:38 10° N 16:01:39 55° ENE 16:01:45 55° E
Cosmos 1802 Rocket 4.0 15:55:37 10° N 16:01:55 67° E 16:02:20 65° ESE
Cosmos 2227 Rocket 3.0 15:58:51 10° NW 16:04:07 40° WSW 16:05:02 38° SW
Cosmos 1544 Rocket 4.3 16:07:30 51° NNW 16:07:30 51° NNW 16:10:56 10° N
Terra 2.7 16:07:02 39° WSW 16:07:17 39° W 16:11:43 10° NNW
Cosmos 372 Rocket 4.1 16:03:17 10° NNW 16:08:20 69° W 16:08:20 69° W
Cosmos 1697 Rocket 4.2 16:04:03 10° WSW 16:09:12 35° NW 16:14:24 10° N
ERS-1 Rocket 4.1 16:08:30 32° WSW 16:09:20 34° W 16:13:53 10° NNW
Cosmos 2228 4.3 16:13:55 36° N 16:13:55 36° N 16:16:29 10° N
Cosmos 2100 Rocket 4.0 16:06:43 10° NNW 16:13:02 73° W 16:13:53 64° SW
ATLAS CENTAUR R/B 3.4 16:17:21 10° NW 16:19:06 21° WNW 16:19:06 21° WNW
BlueWalker 3 4.4 16:18:46 10° NW 16:21:32 19° N 16:22:12 18° NNE
Cosmos 2123 Rocket 3.9 16:22:19 84° S 16:22:34 90° W 16:28:57 10° N
Cosmos 841 Rocket 4.1 16:22:32 50° W 16:23:00 52° WNW 16:28:02 10° NNE
Meteor 2-8 Rocket 4.4 16:22:18 10° N 16:28:18 81° NE 16:28:18 81° NE
Cosmos 2369 4.4 16:39:59 47° W 16:40:48 50° WNW 16:46:20 10° NNE
NOSS 3-2 (C) 4.2 16:39:45 10° NNW 16:47:12 65° NE 16:48:37 57° E
Cosmos 2233 Rocket 4.0 16:43:58 10° N 16:49:34 74° N 16:49:34 74° N
ARIANE 5 R/B 4.2 16:53:27 34° NNW 16:53:27 34° NNW 16:56:01 10° NNW
Cosmos 1725 Rocket 4.2 16:47:08 10° NNW 16:53:00 61° W 16:53:00 61° W
Cosmos 2263 Rocket 3.2 16:48:59 10° NW 16:53:17 39° W 16:53:17 39° W
Cosmos 2360 Rocket 4.1 16:58:17 19° NE 16:58:17 19° NE 17:00:11 10° NE
CZ-4C R/B 4.2 16:54:31 10° WNW 17:00:56 29° WSW 17:01:49 29° WSW
Cosmos 2219 Rocket 4.5 17:11:19 13° ENE 17:11:19 13° ENE 17:12:10 10° NE
Lacrosse 5 4.1 17:12:06 17° NE 17:12:06 17° NE 17:13:16 10° NE
Cosmos 909 Rocket 4.4 17:08:17 85° SSE 17:08:26 86° ESE 17:17:27 10° NNE
Cosmos 2322 Rocket 3.6 17:12:57 30° NE 17:12:57 30° NE 17:15:51 10° NNE
Cosmos 2061 Rocket 4.4 17:04:24 10° NNW 17:10:17 59° WNW 17:10:17 59° WNW
Cosmos 2333 Rocket 3.9 17:20:50 24° NE 17:20:50 24° NE 17:23:17 10° NE
NOSS 3-2 (A) 4.4 17:12:30 10° NW 17:19:50 53° WSW 17:19:50 53° WSW
SL-16 R/B 3.0 17:33:38 47° N 17:33:38 47° N 17:37:51 10° NNE
CENTAUR R/B 4.2 17:28:40 10° NW 17:36:13 35° WSW 17:36:14 35° WSW
Cosmos 1844 Rocket 3.6 17:32:12 10° NNW 17:35:58 44° NNW 17:35:58 44° NNW
Lacrosse 4 Rocket 4.2 17:41:46 16° NNW 17:41:46 16° NNW 17:43:14 10° N
USA 238 DEB 3.9 17:39:41 10° NW 17:46:51 81° NNE 17:46:51 81° NNE
USA 238 3.9 17:39:47 10° NW 17:46:58 80° NNE 17:46:58 80° NNE
H-2A R/B 4.4 18:16:21 10° N 18:17:51 21° N 18:17:51 21° N
NOSS 3-4 (A) 4.1 18:25:58 47° N 18:25:58 47° N 18:30:28 10° NNE
NOSS 3-4 (C) 4.1 18:26:02 47° N 18:26:02 47° N 18:30:31 10° NNE
Cosmos 2237 Rocket 4.4 18:27:11 15° ENE 18:27:11 15° ENE 18:28:58 10° ENE
COSMOS 2428 3.9 18:38:12 36° NE 18:38:12 36° NE 18:41:43 10° NE
Cosmos 2360 Rocket 3.4 18:40:00 36° NW 18:40:00 36° NW 18:44:22 10° NNE
CZ-2D R/B 4.5 18:44:40 10° ENE 18:47:03 14° E 18:47:03 14° E
Tsikada Rocket 4.4 18:48:44 58° NNW 18:48:44 58° NNW 18:53:40 10° N
Cosmos 2219 Rocket 3.1 18:53:00 45° N 18:53:00 45° N 18:57:05 10° NNE
Lacrosse 5 3.7 18:51:14 26° NNW 18:51:43 26° NNW 18:56:01 10° NE
Cosmos 2322 Rocket 3.9 18:54:43 24° NW 18:54:44 24° NW 18:59:17 10° N
Cosmos 2278 Rocket 3.2 18:54:45 10° NNW 19:00:07 41° ENE 19:00:11 41° ENE
Cosmos 2333 Rocket 3.6 19:02:48 31° NW 19:02:48 31° NW 19:07:21 10° N
Resurs 1-4 Rocket 4.1 18:59:50 10° NE 19:03:07 19° E 19:03:07 19° E
NOSS 0 Rocket 4.3 19:18:24 58° ENE 19:18:24 58° ENE 19:23:36 10° NNE
SL-16 R/B 4.4 19:21:21 14° ESE 19:21:44 14° E 19:24:33 10° ENE
ATLAS 2AS CENTAUR R/B 3.9 19:23:30 32° ESE 19:23:47 32° ESE 19:30:01 10° NE
Cosmos 1943 Rocket 3.4 19:18:55 10° N 19:24:09 37° ENE 19:25:50 30° E
ADEOS II 3.9 19:27:12 10° NE 19:31:10 21° E 19:31:29 21° E
CZ-2C R/B 4.0 19:33:41 29° E 19:35:08 33° ENE 19:39:50 10° N
ATLAS 5 CENTAUR R/B 4.0 19:34:52 10° NNW 19:39:00 27° NE 19:43:54 10° E
Cosmos 2180 Rocket 4.5 19:33:42 10° N 19:39:44 80° NNW 19:39:44 80° NNW
Meteor 1-11 Rocket 4.0 19:35:29 10° N 19:40:46 59° ENE 19:40:46 59° ENE
MSX 4.4 19:38:00 10° NNE 19:43:35 48° E 19:43:40 48° ESE
NPP 4.1 19:40:11 10° NNE 19:45:05 55° E 19:45:05 55° E
USA 215 3.1 19:49:02 10° NE 19:55:36 81° NW 19:56:24 70° WSW
Cosmos 1151 Rocket 3.9 20:08:56 46° ENE 20:08:56 46° ENE 20:12:27 10° NNE
Cosmos 2237 Rocket 2.2 20:09:00 72° NW 20:09:00 72° NW 20:14:34 10° NNE
Cosmos 921 Rocket 4.3 20:11:17 35° E 20:11:17 35° E 20:14:52 10° NE
Cosmos 1743 Rocket 4.4 20:07:06 10° N 20:10:12 46° N 20:10:12 46° N
Cosmos 1980 3.8 20:11:43 65° WNW 20:11:43 65° WNW 20:17:16 10° NNE
Nadezhda 4 Rocket 3.9 20:13:25 68° W 20:13:34 68° W 20:19:41 10° N
Cosmos 923 Rocket 4.0 20:15:37 75° NNW 20:15:37 75° NNW 20:20:39 10° NNE
Cosmos 1428 Rocket 4.4 20:17:22 69° S 20:18:14 90° E 20:24:31 10° N
SL-16 R/B 3.2 20:14:12 18° SE 20:18:37 53° ENE 20:24:39 10° N
BREEZE-M DEB (TANK) 3.6 20:20:06 54° SSE 20:20:12 55° SSE 20:23:45 10° ENE
COSMOS 2428 4.0 20:20:10 26° WNW 20:20:44 27° NW 20:25:30 10° N
Cosmos 2344 4.1 20:14:30 10° NW 20:23:14 71° WSW 20:35:30 10° SSE
Meteor 2-9 Rocket 4.0 20:21:07 10° NNW 20:26:34 77° W 20:26:42 76° WSW
CZ-2D R/B 2.0 20:22:32 10° NNE 20:27:57 81° WNW 20:28:21 75° SW
Meteor 2-4 Rocket 4.3 20:27:02 37° SE 20:28:42 49° E 20:34:05 10° NNE
Meteor 1-19 Rocket 4.2 20:28:20 68° SW 20:29:03 77° W 20:35:08 10° N
USA 267 3.3 20:22:54 10° ESE 20:29:27 80° NE 20:36:02 10° NW
IDEFIX/ARIANE 42P 2.7 20:25:54 10° N 20:31:00 58° WNW 20:31:00 58° WNW
CZ-2C R/B 3.2 20:27:04 10° NNE 20:32:24 72° ESE 20:33:29 56° SSE
Cosmos 1371 Rocket 4.0 20:28:51 10° NNW 20:34:09 78° ENE 20:35:53 43° SSE
Cosmos 1340 3.8 20:31:56 10° N 20:34:40 37° NE 20:34:40 37° NE
Lacrosse 5 4.4 20:32:49 10° NW 20:36:14 18° N 20:39:39 10° NE
Cosmos 2219 Rocket 4.5 20:34:55 10° WNW 20:36:46 11° NW 20:38:37 10° NNW
COSMOS 2441 4.2 20:33:35 10° NNE 20:38:29 84° WNW 20:38:43 79° SW
ALOS 3.1 20:34:48 10° NNE 20:39:15 45° E 20:40:23 37° SE
Cosmos 1975 3.2 20:37:50 10° N 20:41:38 55° E 20:41:46 54° E
IRAS Rocket 4.3 20:37:32 10° NNE 20:43:11 75° ESE 20:44:45 48° S
Resurs 1-4 Rocket 2.2 20:38:35 10° N 20:43:44 56° WNW 20:44:11 54° W
Cosmos 2278 Rocket 3.5 20:39:05 10° NW 20:41:59 25° WNW 20:41:59 25° WNW
FENGYUN 3A 3.6 20:39:53 10° NNE 20:45:20 84° ESE 20:46:38 54° S
Cosmos 1553 Rocket 4.4 20:40:38 10° N 20:46:49 61° E 20:52:08 14° SSE
GP-B 3.3 20:48:12 10° N 20:52:14 55° WNW 20:52:14 55° WNW
Cosmos 2112 Rocket 4.2 20:54:44 51° WSW 20:55:33 57° WNW 21:00:51 10° NNE
Meteor 1-27 Rocket 4.3 21:00:07 37° W 21:00:53 39° WNW 21:06:08 10° N
Cosmos 2026 Rocket 4.2 21:00:28 42° SW 21:02:15 55° WNW 21:08:31 10° N
SAR-Lupe-1 4.1 20:59:09 10° N 21:02:27 68° NNW 21:02:27 68° NNW
Meteor 1-18 Rocket 4.2 21:01:00 35° S 21:03:30 82° E 21:09:19 10° NNE
Cosmos 494 Rocket 4.0 21:02:21 43° S 21:04:04 76° ESE 21:09:11 10° NNE
Cosmos 1470 Rocket 4.3 21:00:29 10° N 21:04:49 51° ENE 21:08:37 13° SSE
SL-16 R/B 2.1 21:03:13 45° SSW 21:05:01 83° WNW 21:10:44 10° NNE
Cosmos 1092 Rocket 4.2 21:03:46 41° WSW 21:05:22 51° WNW 21:11:23 10° N
Cosmos 1766 4.3 21:03:33 10° N 21:07:03 40° ENE 21:09:47 15° SE
Cosmos 1943 Rocket 2.9 21:02:44 10° NW 21:07:17 34° W 21:07:17 34° W
SAR-Lupe-4 3.8 21:04:23 10° N 21:07:35 56° NW 21:07:35 56° NW
Cosmos 1048 Rocket 4.4 21:05:41 31° S 21:08:07 61° ESE 21:13:18 10° NNE
ADEOS II 2.4 21:05:59 10° N 21:11:03 50° WNW 21:12:22 41° WSW
ATLAS 2AS CENTAUR R/B 3.0 21:10:55 33° WSW 21:14:22 62° NW 21:21:28 10° NNE
USA 308 4.1 21:13:25 24° NW 21:14:25 28° NNW 21:17:50 10° NE
Cosmos 1626 1.6 21:14:59 88° E 21:14:59 88° E 21:18:17 10° N
CZ-2C R/B 3.3 21:15:09 34° W 21:15:19 34° W 21:20:10 10° NNW
Cosmos 1666 Rocket 3.6 21:13:12 10° NNW 21:17:34 57° W 21:18:26 47° SW
AQUA 4.2 21:13:32 10° N 21:18:04 47° WNW 21:19:08 40° WSW
ISS -1.1 21:19:41 11° SE 21:20:26 11° SE 21:21:35 10° ESE
ATLAS 5 CENTAUR R/B 2.1 21:18:07 10° NW 21:23:14 62° WSW 21:29:31 10° SSE
GEOS 3 Rocket 3.9 21:18:52 10° SSE 21:23:57 44° WSW 21:29:02 10° NW
Cosmos 1340 Rocket 3.8 21:27:18 29° WNW 21:27:18 29° WNW 21:30:43 10° NNW
Cosmos 1933 Rocket 4.4 21:27:28 10° N 21:31:43 51° ENE 21:35:54 10° SSE
Cosmos 1110 Rocket 4.3 21:28:18 10° NNW 21:33:36 72° ENE 21:38:52 10° SSE
Cosmos 2056 Rocket 4.2 21:28:58 10° NW 21:33:46 33° W 21:35:00 30° SW
CZ-2C R/B 3.1 21:29:42 10° NNE 21:34:48 56° E 21:39:46 10° S
NOSS 3-1 (A) 4.2 21:28:02 10° NW 21:35:31 83° NE 21:44:32 10° SE
USA 290 2.4 21:32:42 10° NNW 21:35:17 47° WNW 21:35:17 47° WNW
Cosmos 1328 Rocket 4.1 21:35:23 34° WSW 21:36:34 41° WNW 21:40:47 10° N
Cosmos 1707 3.8 21:33:41 11° SSE 21:37:01 40° E 21:40:29 10° NNE
Cosmos 1842 3.6 21:35:03 18° S 21:37:41 59° E 21:41:23 10° NNE
USA 215 4.4 21:32:16 10° NE 21:38:05 36° NNW 21:43:44 11° W
Cosmos 1452 Rocket 3.5 21:35:09 10° NNW 21:40:27 85° ENE 21:45:41 10° SSE
METEOR-M 4.1 21:39:13 10° NNE 21:44:35 89° WNW 21:49:08 15° SSW
UNK 4.1 21:42:37 25° SSW 21:44:44 41° W 21:49:06 10° NNW
NOAA 11 4.3 21:41:34 10° NNE 21:47:03 80° ESE 21:52:31 10° S
Cosmos 1633 Rocket 3.8 21:44:21 10° NNW 21:48:14 32° W 21:49:34 26° SW
Envisat 2.9 21:43:27 10° NNE 21:48:34 84° WNW 21:52:53 14° SSW
Cosmos 921 Rocket 4.5 21:47:59 19° W 21:49:10 22° WNW 21:52:34 10° N
Cosmos 1417 Rocket 4.5 21:44:29 10° NNW 21:50:48 69° W 21:57:07 10° S
CZ-4 R/B 3.8 21:46:40 10° N 21:51:20 66° WNW 21:54:36 19° SSW
Cosmos 1066 Rocket 4.2 21:47:58 20° SSW 21:51:42 59° WNW 21:57:12 10° N
Cosmos 2237 Rocket 4.3 21:51:00 10° WNW 21:53:59 14° NW 21:56:58 10° N
NOSS 3-1 (C) 4.3 21:46:46 10° NW 21:54:06 49° WSW 22:02:42 10° S
Cosmos 2369 Rocket 2.1 21:51:07 10° NNW 21:56:41 68° WSW 22:02:12 10° SSE
Cosmos 1656 Rocket 3.7 21:54:23 10° NW 21:59:35 49° WSW 22:04:47 10° S
Cosmos 2266 Rocket 3.9 21:54:16 11° SSW 22:00:04 68° W 22:06:05 10° N
Cosmos 1331 Rocket 3.9 21:54:48 10° NNW 22:00:06 74° WSW 22:05:21 10° SSE
DMSP B5D2-2 4.2 21:55:26 10° SSE 22:00:37 77° ENE 22:05:49 10° N
SL-16 R/B 3.5 21:59:16 18° SW 22:02:29 26° W 22:07:37 10° NW
Cosmos 2297 4.0 21:57:23 10° NW 22:02:50 45° WSW 22:08:15 10° S
ATLAS 3B R/B 3.0 21:55:20 10° NW 22:03:11 75° WSW 22:10:52 10° SSE
S3M 4.0 21:57:43 10° NNW 22:03:52 65° W 22:10:04 10° S
CZ-2D R/B 4.1 22:04:49 10° NNW 22:07:07 13° NW 22:09:26 10° W
YAOGAN 6 2.3 22:05:01 10° N 22:08:19 69° WNW 22:11:10 13° SSW
USA 267 3.9 22:07:14 10° S 22:12:51 30° SW 22:18:30 10° WNW
ALOS 3.7 22:12:46 10° NNW 22:16:09 21° WNW 22:18:44 13° WSW
Cosmos 1943 3.3 22:12:54 11° SSW 22:18:17 69° WNW 22:23:59 10° NNE
Cosmos 1470 2.7 22:14:53 10° NNW 22:18:36 54° W 22:22:17 10° S
Lacrosse 5 3.9 22:16:19 10° NW 22:20:43 28° NNE 22:25:05 10° E
USA 305 3.5 22:20:57 10° SSE 22:21:42 12° SE 22:22:33 10° E
Cosmos 1908 2.9 22:18:26 10° N 22:22:04 81° W 22:25:40 10° S
Cosmos 2263 4.3 22:18:00 10° NNW 22:23:31 56° WSW 22:29:01 10° S
Cosmos 1674 3.3 22:21:16 14° SW 22:23:39 30° WNW 22:26:44 10° NNW
KORONAS-FOTON 4.4 22:26:31 11° SW 22:29:44 33° WNW 22:33:04 10° N
SL-24 R/B - RUBIN 2 4.5 22:24:05 10° SW 22:30:02 74° NW 22:36:38 10° NNE
BREEZE-M DEB (TANK) 4.1 22:31:48 10° N 22:32:08 10° N 22:32:28 10° N
Cosmos 1441 Rocket 4.3 22:33:30 10° N 22:37:09 48° ENE 22:40:44 10° SSE
Meteor 1-12 Rocket 4.5 22:32:37 10° N 22:38:18 79° E 22:44:01 10° SSE
Cosmos 1655 Rocket 4.3 22:33:09 10° SSW 22:39:08 49° WNW 22:45:12 10° N
Cosmos 614 Rocket 4.1 22:34:18 10° SSW 22:39:22 84° ESE 22:44:33 10° NNE
Cosmos 1939 Rocket 3.9 22:36:01 10° NNE 22:39:40 45° E 22:43:21 10° S
Cosmos 1300 4.0 22:36:42 10° N 22:40:08 42° ENE 22:43:33 10° SSE
Cosmos 1869 Rocket 3.8 22:37:00 10° NNW 22:41:10 47° W 22:45:18 10° SSW
Meteor 1-23 Rocket 4.3 22:36:28 10° S 22:42:08 88° E 22:47:46 10° N
USA 307 3.1 22:42:09 10° S 22:43:42 22° SE 22:45:31 10° ENE
Thor Agena Rocket 4.2 22:41:41 10° N 22:46:18 37° WNW 22:50:55 10° SW
Cosmos 2315 Rocket 4.3 22:41:03 10° NNW 22:46:53 45° W 22:52:43 10° SSW
USA 306 2.6 22:44:35 10° SW 22:48:22 76° SE 22:51:50 10° NE
Cosmos 1603 3.8 22:43:20 10° SW 22:48:51 61° WNW 22:54:27 10° NNE
Cosmos 2228 Rocket 3.1 22:44:35 10° S 22:48:59 83° W 22:53:23 10° N
SL-16 R/B 4.1 22:46:40 10° W 22:50:03 16° NW 22:53:26 10° N
In-Cosmos 22 4.4 22:47:02 10° SSW 22:52:24 55° WNW 22:57:57 10° N
